[[{"header":{"parameterUnit":"m.s-1","parameterCategory":2,"la1":30.2991,"la2":30.254,"lo1":-89.0895,"lo2":-89.0444,"dy":0.0017,"dx":0.0017,"nx":28,"ny":28,"refTime":"2025-06-20T21:00:00:Z","depth":"0","parameterNumber":2,"parameterNumberName":"U-component_of_CURRENTS"},"data":[0,0,0,0,0,0,0,0,0,0,0,0,0,0,0,0,0,0,0,0,0,0,0,0,0,0,0,0,0,0,0,0,0,0,0,0,0,0,0,0,0,0,0,0,0,0,0,0,0,0,0,0,0,0,0,0,0,0,0.5383,0.5385,0,0.5573,0.5575,0.5576,0.5518,0.5515,0.5511,0.5508,0.5317,0.5314,0.5312,0,0,0,0,0,0,0,0,0,0,0,0,0,0.509,0.5094,0.5382,0.5386,0.5389,0.5573,0.5575,0.5576,0.5518,0.5514,0.5511,0.5507,0.5317,0.5315,0.5312,0,0,0,0,0,0,0,0,0,0,0,0,0,0.5233,0.5095,0.5382,0.5389,0.5392,0.5573,0.5575,0.5577,0.5519,0.5514,0.551,0.5505,0.5318,0.5315,0.5312,0.5387,0,0,0.5302,0.53,0,0,0,0,0,0,0,0,0.5225,0.5243,0.5385,0.5389,0.5393,0.5525,0.5402,0.5497,0.552,0.5461,0.5508,0.5503,0.536,0.5354,0.5392,0.5378,0.5369,0.5302,0.53,0.5298,0.5297,0,0,0,0,0,0,0,0.5215,0.5235,0.5448,0.5389,0.5394,0.5425,0.5438,0.5421,0.5421,0.5466,0.5465,0.5502,0.5358,0.5396,0.5386,0.5367,0.5302,0.5299,0.5297,0.5296,0.5431,0.5437,0,0,0,0,0,0,0.521,0.5226,0.5443,0.5455,0.5306,0.5434,0.5448,0.548,0.5429,0.5423,0.5506,0.5499,0.5404,0.539,0.5379,0.5435,0.5298,0.5295,0.5293,0.5426,0.5433,0.5439,0,0,0,0,0,0,0.5203,0.5228,0.5435,0.5352,0.5381,0.5444,0.548,0.5486,0.5521,0.5466,0.5448,0.5534,0.5399,0.5383,0.5364,0.5426,0.5294,0.5291,0.5419,0.5428,0.5436,0.5564,0,0,0,0,0,0,0.5194,0.5224,0.5254,0.5352,0.5386,0.5554,0.5486,0.5494,0.5556,0.5548,0.5485,0.5463,0.5394,0.537,0.5361,0.5419,0.5288,0.5412,0.5423,0.5433,0.5552,0.5575,0.5595,0,0,0,0,0,0.5183,0.5274,0.5254,0.5281,0.5422,0.5559,0.558,0.5601,0.5562,0.5607,0.5547,0.5465,0.5431,0.5371,0.5359,0.5418,0.5407,0.542,0.5432,0.5543,0.5571,0.5594,0,0,0,0,0,0,0.5207,0.5281,0.526,0.5376,0.5454,0.5551,0.5629,0.5624,0.5627,0.5607,0.551,0.5487,0.5511,0.5466,0.5402,0.5503,0.5418,0.5429,0.5507,0.5532,0.5553,0.5569,0.5286,0,0,0,0,0,0.5217,0.5271,0.5356,0.5449,0.5499,0.5557,0.5617,0.5631,0.5655,0.5654,0.5601,0.5569,0.5569,0.5541,0.554,0.557,0.5558,0.5618,0.564,0.5657,0.5672,0.573,0.5756,0.548,0.5479,0.5479,0,0,0.5248,0.5306,0.5333,0.5452,0.5519,0.5593,0.558,0.5699,0.5731,0.563,0.5649,0.564,0.5602,0.5643,0.5652,0.5594,0.5737,0.5673,0.5687,0.5693,0.5746,0.5772,0.5795,0.5488,0.5486,0.5485,0,0,0.5344,0.5398,0.5458,0.552,0.563,0.5672,0.5703,0.5793,0.5805,0.5847,0.5791,0.5824,0.58,0.58,0.5791,0.5941,0.5861,0.5946,0.6035,0.6092,0.6113,0.6132,0.616,0.618,0.5938,0.5939,0.5939,0,0.5364,0.5441,0.5509,0.5584,0.5624,0.5696,0.5753,0.5819,0.5874,0.5878,0.5862,0.5905,0.5887,0.5927,0.5998,0.5985,0.5985,0.5921,0.6114,0.6132,0.6149,0.6172,0.6193,0.5946,0.5945,0.5945,0.5944,0,0.5484,0.5531,0.5603,0.5666,0.5734,0.5825,0.5894,0.5951,0.597,0.5998,0.6066,0.6086,0.6089,0.6134,0.6108,0.6229,0.6182,0.614,0.603,0.6183,0.62,0.6219,0.5957,0.5954,0.5952,0.595,0,0,0.551,0.5639,0.5645,0.5643,0.5766,0.5822,0.5914,0.5988,0.6005,0.6108,0.6131,0.6244,0.6258,0.6259,0.6258,0.6341,0.6494,0.6304,0.6303,0.63,0.66,0.6513,0.6523,0.6467,0.6472,0.6475,0.6563,0,0.5547,0.564,0.5704,0.5757,0.5796,0.5865,0.5915,0.5991,0.6054,0.6106,0.6207,0.6243,0.6299,0.6305,0.6415,0.647,0.6549,0.6473,0.648,0.6481,0.6358,0.6545,0.6307,0.6361,0.6581,0.6584,0.6586,0,0.5587,0.5637,0.5687,0.5721,0.5744,0.5783,0.5832,0.5895,0.6013,0.6062,0.6168,0.6224,0.6388,0.64,0.6607,0.6547,0.6601,0.6655,0.6657,0.6542,0.643,0.6248,0.6386,0.6172,0.6614,0.6612,0.661,0,0.549,0.5591,0.5603,0.5626,0.5715,0.5727,0.5769,0.5866,0.5899,0.6033,0.6074,0.6251,0.6329,0.6479,0.6653,0.662,0.6861,0.6796,0.6766,0.6757,0.6542,0.6508,0.6443,0.6936,0.6935,0.6935,0.6935,0,0.5457,0.5458,0.5551,0.5553,0.5549,0.5632,0.5637,0.5715,0.5813,0.5849,0.6031,0.6105,0.6361,0.6526,0.6663,0.6803,0.6866,0.6829,0.6799,0.6583,0.6553,0.6342,0.6248,0.6938,0.6938,0.6937,0.6936,0,0.5337,0.5404,0.5413,0.5487,0.5501,0.549,0.555,0.5556,0.5675,0.5736,0.5783,0.6025,0.6251,0.6487,0.6729,0.678,0.6735,0.694,0.667,0.6608,0.6335,0.6258,0.6046,0.5879,0.6903,0.6902,0.6901,0,0.5284,0.5285,0.5336,0.5317,0.5345,0.5352,0.535,0.547,0.5489,0.5678,0.5697,0.5947,0.6101,0.6447,0.6621,0.6825,0.6659,0.6667,0.6577,0.6331,0.6224,0.6029,0.5889,0.6343,0.6337,0.6333,0.6329,0,0.5183,0.5199,0.52,0.5168,0.5155,0.5143,0.516,0.5163,0.5301,0.538,0.5494,0.5639,0.5987,0.6127,0.642,0.6516,0.6321,0.6575,0.6392,0.5864,0.5576,0.5393,0.6261,0.6289,0.6293,0.6296,0.6298,0.63,0.5085,0.5054,0.5043,0.4988,0.4971,0.491,0.4843,0.489,0.4912,0.4991,0.5239,0.5411,0.568,0.6068,0.6128,0.6016,0.6033,0.5859,0.5814,0.5661,0.5408,0.6192,0.614,0.6143,0.6145,0.6148,0.615,0,0.4955,0.492,0.4861,0.4782,0.4687,0.4737,0.4688,0.4599,0.4564,0.4764,0.4874,0.5121,0.526,0.5462,0.5475,0.5291,0.5109,0.5136,0.4791,0.4716,0.5472,0.5353,0.504,0.504,0.504,0.504,0.504,0.5041,0.4879,0.4777,0.4735,0.4525,0.446,0.4282,0.4219,0.4135,0.421,0.4249,0.4387,0.4595,0.4838,0.493,0.4757,0.4668,0.4313,0.414,0.4138,0.4647,0.4709,0.4768,0.4634,0.4175,0.4174,0.3206,0.3198,0.3193]},{"header":{"parameterUnit":"m.s-1","parameterCategory":2,"la1":30.2991,"la2":30.254,"lo1":-89.0895,"lo2":-89.0444,"dy":0.0017,"dx":0.0017,"nx":28,"ny":28,"refTime":"2025-06-20T21:00:00:Z","depth":"0","parameterNumber":3,"parameterNumberName":"V-component_of_CURRENTS"},"data":[0,0,0,0,0,0,0,0,0,0,0,0,0,0,0,0,0,0,0,0,0,0,0,0,0,0,0,0,0,0,0,0,0,0,0,0,0,0,0,0,0,0,0,0,0,0,0,0,0,0,0,0,0,0,0,0,0,0,0.0599,0.06,0,0.0632,0.0632,0.0632,0.0568,0.0566,0.0564,0.0562,0.034,0.0336,0.0332,0,0,0,0,0,0,0,0,0,0,0,0,0,0.0518,0.0519,0.0599,0.06,0.06,0.0632,0.0632,0.0632,0.0568,0.0566,0.0563,0.0561,0.0341,0.0336,0.0331,0,0,0,0,0,0,0,0,0,0,0,0,0,0.055,0.052,0.0599,0.0573,0.0572,0.0632,0.0632,0.0632,0.0569,0.0566,0.0563,0.056,0.0343,0.0337,0.0331,0.0351,0,0,0.0312,0.0309,0,0,0,0,0,0,0,0,0.0548,0.0553,0.0577,0.0575,0.0573,0.0594,0.0522,0.0526,0.0569,0.0568,0.0562,0.0559,0.0405,0.0393,0.0407,0.034,0.0331,0.0311,0.0308,0.0305,0.0303,0,0,0,0,0,0,0,0.0546,0.0551,0.061,0.0578,0.0576,0.0573,0.0574,0.0524,0.0496,0.0568,0.0563,0.0571,0.0401,0.0413,0.04,0.0327,0.0311,0.0306,0.0302,0.03,0.0271,0.0274,0,0,0,0,0,0,0.0548,0.055,0.0609,0.0611,0.0556,0.0577,0.0578,0.0589,0.0502,0.0488,0.0574,0.0568,0.0425,0.0408,0.0392,0.044,0.0305,0.0299,0.0296,0.0268,0.0272,0.0275,0,0,0,0,0,0,0.0546,0.0553,0.0608,0.0582,0.0589,0.0581,0.0595,0.0591,0.0611,0.051,0.049,0.0598,0.0422,0.04,0.0351,0.0428,0.0296,0.0291,0.0265,0.0269,0.0273,0.0514,0,0,0,0,0,0,0.0544,0.0553,0.0564,0.0583,0.0591,0.0677,0.0598,0.0594,0.0621,0.0614,0.0524,0.05,0.0418,0.0361,0.0345,0.0417,0.0286,0.0261,0.0267,0.0272,0.0503,0.0527,0.0547,0,0,0,0,0,0.0541,0.0603,0.0565,0.0572,0.0606,0.068,0.0686,0.0668,0.0625,0.0668,0.0578,0.0503,0.0385,0.0358,0.0338,0.0411,0.0258,0.0265,0.0272,0.0493,0.0522,0.0546,0,0,0,0,0,0,0.0596,0.0603,0.0561,0.0623,0.0651,0.0671,0.0712,0.0692,0.0665,0.0645,0.0526,0.0499,0.0494,0.0415,0.0388,0.042,0.0316,0.0319,0.0491,0.0517,0.0539,0.0589,0.0281,0,0,0,0,0,0.0606,0.0637,0.0647,0.0697,0.0714,0.0709,0.0734,0.0731,0.0711,0.07,0.0633,0.0558,0.0512,0.0481,0.0431,0.0438,0.0381,0.0476,0.0498,0.0517,0.0545,0.055,0.0576,0.0297,0.0297,0.0296,0,0,0.0637,0.0649,0.0662,0.0708,0.072,0.0785,0.0719,0.0789,0.0836,0.0675,0.0707,0.0634,0.053,0.0545,0.0537,0.0483,0.0562,0.0526,0.0543,0.056,0.056,0.0587,0.0611,0.0301,0.03,0.03,0,0,0.075,0.073,0.0797,0.0826,0.0866,0.087,0.0896,0.0925,0.0929,0.0952,0.0849,0.0826,0.0754,0.0714,0.0675,0.079,0.0682,0.0771,0.092,0.0926,0.0949,0.0969,0.0915,0.0928,0.078,0.0781,0.0781,0,0.0785,0.0851,0.0836,0.0915,0.0941,0.0913,0.0996,0.1022,0.1031,0.1043,0.0989,0.0937,0.0848,0.0867,0.0902,0.0846,0.0802,0.0829,0.0958,0.0977,0.0993,0.0932,0.0944,0.0793,0.0792,0.079,0.0789,0,0.0949,0.0985,0.1041,0.1097,0.114,0.1214,0.123,0.1274,0.1257,0.1266,0.1296,0.1202,0.1168,0.115,0.1052,0.1134,0.1048,0.099,0.0898,0.1036,0.0962,0.097,0.0811,0.0806,0.0803,0.0799,0,0,0.1055,0.113,0.1142,0.1169,0.1229,0.1287,0.1374,0.144,0.15,0.1511,0.1591,0.1531,0.149,0.1444,0.1346,0.1346,0.1408,0.1229,0.1223,0.1188,0.1382,0.1313,0.1312,0.1375,0.1378,0.138,0.1277,0,0.117,0.1305,0.1324,0.1443,0.1499,0.1497,0.158,0.1638,0.166,0.1739,0.1697,0.1724,0.16,0.159,0.1587,0.1471,0.1442,0.1438,0.1241,0.1235,0.1169,0.1326,0.1268,0.1172,0.1283,0.1284,0.1285,0,0.1314,0.1371,0.1491,0.1567,0.1598,0.1673,0.1766,0.1844,0.1935,0.196,0.2001,0.1965,0.199,0.1855,0.1764,0.1768,0.1595,0.1486,0.1478,0.1342,0.1183,0.1053,0.118,0.086,0.1295,0.1295,0.1294,0,0.136,0.1485,0.1562,0.1592,0.1693,0.1752,0.1812,0.1908,0.1999,0.2105,0.2189,0.2195,0.222,0.208,0.1878,0.1823,0.1758,0.1642,0.1402,0.139,0.1268,0.1243,0.1079,0.1551,0.1551,0.1552,0.1552,0,0.1448,0.1513,0.1587,0.1627,0.1753,0.1805,0.1951,0.2017,0.2158,0.2307,0.2302,0.2422,0.2284,0.2231,0.1989,0.1764,0.1842,0.147,0.1394,0.1346,0.133,0.0981,0.0821,0.1547,0.1548,0.1549,0.155,0,0.1474,0.152,0.1619,0.1724,0.1772,0.1858,0.2038,0.2155,0.2268,0.2469,0.2524,0.2628,0.2589,0.2393,0.2178,0.1914,0.1501,0.1541,0.1474,0.1395,0.0868,0.0725,0.0525,0.04,0.1281,0.128,0.1278,0,0.1491,0.1542,0.167,0.1746,0.1795,0.1932,0.2049,0.2193,0.234,0.2597,0.272,0.2775,0.2857,0.255,0.2141,0.1748,0.1442,0.134,0.1228,0.0879,0.0663,0.058,0.0484,0.1131,0.1128,0.1126,0.1124,0,0.1514,0.1556,0.1628,0.1779,0.1903,0.2069,0.2248,0.2393,0.2599,0.2801,0.3062,0.3158,0.2914,0.2594,0.2059,0.1732,0.1134,0.1279,0.0958,0.0593,0.0456,0.0285,0.1106,0.1106,0.1107,0.1109,0.111,0.1111,0.1516,0.1571,0.167,0.182,0.1978,0.2196,0.2359,0.2591,0.2868,0.3207,0.3286,0.349,0.293,0.2264,0.1813,0.0899,0.0975,0.0569,0.0436,0.0394,0.0258,0.1026,0.0921,0.0922,0.0923,0.0923,0.0924,0,0.1505,0.1582,0.1716,0.1905,0.2089,0.2181,0.2492,0.2695,0.3042,0.3358,0.3604,0.3429,0.2708,0.1951,0.0754,0.0151,-0.0041,-0.0185,-0.034,-0.0388,0.0311,0.0285,-0.0007,-0.0007,-0.0006,-0.0006,-0.0006,-0.0005,0.1499,0.1595,0.1672,0.1951,0.2113,0.2386,0.2579,0.291,0.3201,0.356,0.37,0.3776,0.3045,0.102,-0.0357,-0.0638,-0.1031,-0.1097,-0.1252,-0.0844,-0.0785,-0.0729,-0.0791,-0.1304,-0.1305,-0.1899,-0.1906,-0.1911]}],[{"header":{"parameterUnit":"m.s-1","parameterCategory":2,"la1":30.2991,"la2":30.254,"lo1":-89.0895,"lo2":-89.0444,"dy":0.0017,"dx":0.0017,"nx":28,"ny":28,"refTime":"2025-06-20T21:00:00:Z","depth":"2","parameterNumber":2,"parameterNumberName":"U-component_of_CURRENTS"},"data":[0,0,0,0,0,0,0,0,0,0,0,0,0,0,0,0,0,0,0,0,0,0,0,0,0,0,0,0,0,0,0,0,0,0,0,0,0,0,0,0,0,0,0,0,0,0,0,0,0,0,0,0,0,0,0,0,0,0,0.336,0.3361,0,0.3441,0.3442,0.3443,0.3491,0.3491,0.3492,0.3492,0.3588,0.359,0.3592,0,0,0,0,0,0,0,0,0,0,0,0,0,0.3314,0.3313,0.336,0.3361,0.3362,0.3441,0.3442,0.3443,0.3491,0.3491,0.3492,0.3493,0.3588,0.359,0.3593,0,0,0,0,0,0,0,0,0,0,0,0,0,0.3354,0.3313,0.3359,0.3398,0.3403,0.3441,0.3442,0.3443,0.349,0.3491,0.3492,0.3493,0.3587,0.359,0.3593,0.3596,0,0,0.3602,0.3604,0,0,0,0,0,0,0,0,0.3352,0.3356,0.3391,0.3396,0.3401,0.346,0.3461,0.3496,0.349,0.3453,0.3492,0.3493,0.3549,0.3555,0.3563,0.36,0.3604,0.3603,0.3604,0.3606,0.3607,0,0,0,0,0,0,0,0.3349,0.3353,0.3388,0.3393,0.3399,0.3436,0.3441,0.3468,0.3493,0.3457,0.3461,0.3476,0.3551,0.356,0.3566,0.3606,0.3603,0.3605,0.3607,0.3608,0.3811,0.3814,0,0,0,0,0,0,0.3342,0.335,0.3386,0.3391,0.3382,0.3436,0.3442,0.3437,0.3492,0.3503,0.3475,0.3478,0.3554,0.3562,0.3569,0.3693,0.3606,0.3609,0.361,0.3807,0.3812,0.3816,0,0,0,0,0,0,0.334,0.3343,0.3383,0.3377,0.3385,0.3436,0.343,0.3438,0.3499,0.3507,0.3517,0.3533,0.3555,0.3565,0.3674,0.3693,0.361,0.3613,0.3803,0.3809,0.3814,0.3865,0,0,0,0,0,0,0.3338,0.3341,0.3349,0.3375,0.3385,0.3458,0.343,0.344,0.3505,0.3511,0.3559,0.3566,0.3556,0.367,0.3677,0.3695,0.3615,0.3799,0.3806,0.3812,0.3859,0.3872,0.3883,0,0,0,0,0,0.3336,0.3304,0.3348,0.3354,0.3388,0.3461,0.3471,0.3507,0.3508,0.3559,0.3607,0.3567,0.3715,0.3677,0.3684,0.3703,0.3796,0.3804,0.3811,0.3854,0.3869,0.3882,0,0,0,0,0,0,0.3292,0.3309,0.3356,0.3338,0.3436,0.3472,0.3513,0.3539,0.3611,0.3617,0.3627,0.364,0.3729,0.3734,0.369,0.3787,0.3743,0.3752,0.3772,0.3787,0.3798,0.3747,0.3618,0,0,0,0,0,0.329,0.3277,0.3351,0.3361,0.3415,0.3485,0.3521,0.3549,0.3608,0.364,0.3668,0.3708,0.3757,0.3793,0.3826,0.3894,0.3919,0.3912,0.3923,0.3933,0.3902,0.4039,0.4059,0.3842,0.3842,0.3841,0,0,0.33,0.3292,0.3304,0.3355,0.3433,0.3483,0.3511,0.3581,0.3613,0.3638,0.3702,0.3752,0.379,0.386,0.3898,0.3873,0.401,0.3943,0.395,0.3913,0.4049,0.407,0.4089,0.3847,0.3846,0.3845,0,0,0.3285,0.3309,0.3314,0.3371,0.3466,0.3506,0.3544,0.362,0.3667,0.3747,0.3767,0.3851,0.3913,0.3946,0.3969,0.4075,0.4069,0.4087,0.41,0.4236,0.4254,0.427,0.4325,0.4345,0.4092,0.4093,0.4093,0,0.3304,0.3303,0.3345,0.3361,0.3402,0.3522,0.3565,0.3625,0.3715,0.376,0.3778,0.39,0.394,0.4024,0.4058,0.4092,0.4152,0.4037,0.4248,0.4265,0.428,0.4333,0.4355,0.4096,0.4096,0.4095,0.4095,0,0.3255,0.3318,0.3339,0.3387,0.343,0.3503,0.3583,0.3652,0.3716,0.3768,0.389,0.3967,0.4044,0.4072,0.4092,0.4216,0.4216,0.4247,0.4201,0.4305,0.4354,0.4376,0.4101,0.41,0.4099,0.4098,0,0,0.3213,0.3293,0.3333,0.3375,0.345,0.3482,0.355,0.3664,0.3768,0.3823,0.396,0.4008,0.4076,0.4108,0.4166,0.4262,0.4428,0.43,0.4306,0.433,0.4692,0.4481,0.4484,0.4521,0.4525,0.4529,0.4679,0,0.3231,0.3246,0.3281,0.3371,0.3408,0.3499,0.3582,0.3663,0.3793,0.3963,0.4029,0.421,0.409,0.4225,0.4264,0.4425,0.449,0.438,0.4606,0.461,0.4392,0.4504,0.4166,0.4254,0.47,0.4704,0.4706,0,0.3211,0.3209,0.3263,0.3386,0.3427,0.348,0.3635,0.3741,0.3964,0.4085,0.4189,0.4322,0.4439,0.4415,0.4546,0.4494,0.457,0.4651,0.4661,0.4446,0.4438,0.4227,0.4276,0.4742,0.4739,0.4737,0.4734,0,0.3124,0.3242,0.3273,0.3292,0.3411,0.3471,0.3583,0.3771,0.3922,0.4237,0.4397,0.4513,0.4669,0.4735,0.4777,0.4747,0.4954,0.4958,0.4798,0.4783,0.452,0.4472,0.5078,0.5077,0.5077,0.5077,0.5076,0,0.3092,0.3136,0.3254,0.3251,0.3363,0.3449,0.365,0.3805,0.4087,0.4279,0.4481,0.4625,0.4779,0.4884,0.4884,0.4844,0.5017,0.479,0.4819,0.4525,0.4479,0.4916,0.4895,0.5082,0.5081,0.508,0.5079,0,0.3012,0.3075,0.313,0.3266,0.3327,0.3409,0.3681,0.3855,0.4119,0.4391,0.4524,0.4779,0.489,0.4952,0.5132,0.4983,0.5025,0.4981,0.4566,0.4538,0.4737,0.4718,0.4843,0.4837,0.4831,0.4827,0.4824,0,0.2974,0.2987,0.3146,0.3209,0.3287,0.344,0.3597,0.3857,0.4007,0.4405,0.4504,0.478,0.4824,0.4918,0.4844,0.4811,0.4929,0.4472,0.4321,0.4702,0.472,0.4709,0.4697,0.4015,0.4005,0.3997,0.399,0,0.2902,0.2984,0.3033,0.3181,0.3312,0.3468,0.3659,0.3761,0.4068,0.4226,0.4408,0.4527,0.4631,0.4432,0.4422,0.4342,0.4438,0.4299,0.4905,0.4088,0.3924,0.3939,0.3956,0.3918,0.3926,0.3931,0.3935,0.3938,0.2906,0.2933,0.304,0.3142,0.3313,0.3455,0.351,0.3622,0.3756,0.3882,0.4102,0.4088,0.415,0.3906,0.3786,0.3721,0.3998,0.3835,0.3861,0.3896,0.3734,0.3566,0.3461,0.3465,0.3469,0.3473,0.3476,0,0.2847,0.2874,0.3003,0.31,0.321,0.3372,0.3517,0.3419,0.3371,0.3527,0.3544,0.3283,0.3176,0.3254,0.3048,0.3027,0.3017,0.2906,0.2893,0.2966,0.3032,0.2826,0.2313,0.2309,0.2305,0.2302,0,0,0.2806,0.2819,0.2836,0.291,0.3054,0.312,0.3165,0.2989,0.295,0.2787,0.2767,0.2968,0.3137,0.2671,0.2624,0.2446,0.268,0.2343,0.3283,0.3342,0.3402,0.3579,0.3346,0,0,0,0,0]},{"header":{"parameterUnit":"m.s-1","parameterCategory":2,"la1":30.2991,"la2":30.254,"lo1":-89.0895,"lo2":-89.0444,"dy":0.0017,"dx":0.0017,"nx":28,"ny":28,"refTime":"2025-06-20T21:00:00:Z","depth":"2","parameterNumber":3,"parameterNumberName":"V-component_of_CURRENTS"},"data":[0,0,0,0,0,0,0,0,0,0,0,0,0,0,0,0,0,0,0,0,0,0,0,0,0,0,0,0,0,0,0,0,0,0,0,0,0,0,0,0,0,0,0,0,0,0,0,0,0,0,0,0,0,0,0,0,0,0,0.0017,0.0016,0,-0.0014,-0.0014,-0.0015,-0.0045,-0.0045,-0.0046,-0.0046,-0.0179,-0.0182,-0.0186,0,0,0,0,0,0,0,0,0,0,0,0,0,0.0059,0.0059,0.0017,0.0016,0.0016,-0.0014,-0.0014,-0.0015,-0.0045,-0.0045,-0.0046,-0.0046,-0.0178,-0.0182,-0.0186,0,0,0,0,0,0,0,0,0,0,0,0,0,0.0035,0.0058,0.0017,-0.0002,-0.0004,-0.0014,-0.0014,-0.0015,-0.0045,-0.0045,-0.0046,-0.0046,-0.0177,-0.0182,-0.0186,-0.0207,0,0,-0.0201,-0.0203,0,0,0,0,0,0,0,0,0.0036,0.0033,0.0001,-0.0,-0.0003,-0.0025,-0.0048,-0.0084,-0.0045,-0.003,-0.0046,-0.0047,-0.0136,-0.0144,-0.0149,-0.0214,-0.0219,-0.0202,-0.0205,-0.0207,-0.0208,0,0,0,0,0,0,0,0.0038,0.0035,0.0004,0.0001,-0.0001,-0.0005,-0.0009,-0.0055,-0.0083,-0.0032,-0.0034,-0.0035,-0.0138,-0.0144,-0.0153,-0.0221,-0.0202,-0.0206,-0.0209,-0.0211,-0.032,-0.0319,0,0,0,0,0,0,0.0044,0.0036,0.0005,0.0003,0.0017,-0.0005,-0.001,-0.0018,-0.008,-0.0089,-0.0035,-0.0037,-0.0136,-0.0147,-0.0158,-0.0194,-0.0207,-0.0211,-0.0214,-0.032,-0.0319,-0.0319,0,0,0,0,0,0,0.0045,0.0041,0.0006,0.002,0.0015,-0.0006,-0.0015,-0.0019,-0.0018,-0.0081,-0.0093,-0.0029,-0.0137,-0.0151,-0.0183,-0.0199,-0.0214,-0.0218,-0.032,-0.032,-0.0319,-0.0262,0,0,0,0,0,0,0.0046,0.0041,0.0042,0.002,0.0015,0.0013,-0.0014,-0.0019,-0.0018,-0.002,-0.008,-0.0093,-0.0138,-0.0175,-0.0188,-0.0206,-0.0222,-0.032,-0.032,-0.0319,-0.0263,-0.0259,-0.0256,0,0,0,0,0,0.0048,0.0042,0.0042,0.0039,0.0015,0.0014,0.0012,-0.0006,-0.0017,-0.0008,-0.0047,-0.0091,-0.0184,-0.0178,-0.0193,-0.0214,-0.032,-0.032,-0.0319,-0.0265,-0.026,-0.0256,0,0,0,0,0,0,0.0057,0.0038,0.0038,0.0027,0.0031,0.001,0.0007,0.0004,-0.0017,-0.0025,-0.0083,-0.0099,-0.0138,-0.0176,-0.0168,-0.0244,-0.0263,-0.0266,-0.0216,-0.0212,-0.0209,-0.0192,-0.0226,0,0,0,0,0,0.0063,0.0056,0.0048,0.0043,0.0042,0.0031,0.0029,0.0026,0.0003,-0.0006,-0.0047,-0.0098,-0.015,-0.0177,-0.0223,-0.0258,-0.0269,-0.0283,-0.0279,-0.0276,-0.0272,-0.0256,-0.0249,-0.0319,-0.0319,-0.0319,0,0,0.0067,0.0055,0.0053,0.0047,0.0039,0.0051,0.0028,0.0032,0.0035,-0.002,-0.0038,-0.0084,-0.0154,-0.0195,-0.0217,-0.0229,-0.0268,-0.0276,-0.0272,-0.0271,-0.0255,-0.0248,-0.0242,-0.0319,-0.0319,-0.0319,0,0,0.0084,0.0061,0.0072,0.0079,0.0083,0.0069,0.0077,0.0068,0.0053,0.0043,-0.0009,-0.0054,-0.0117,-0.0175,-0.0214,-0.0217,-0.0245,-0.0235,-0.0209,-0.0193,-0.0186,-0.0181,-0.0206,-0.0203,-0.0236,-0.0236,-0.0236,0,0.0099,0.0108,0.0079,0.0101,0.0117,0.0082,0.0119,0.0087,0.0073,0.0067,0.0045,-0.0049,-0.0113,-0.0177,-0.0184,-0.0212,-0.0205,-0.022,-0.0185,-0.018,-0.0175,-0.0202,-0.0199,-0.0233,-0.0234,-0.0234,-0.0234,0,0.014,0.015,0.0153,0.0167,0.0178,0.0197,0.017,0.0165,0.0141,0.0118,0.0069,-0.0016,-0.0067,-0.0108,-0.0153,-0.0169,-0.0178,-0.0176,-0.019,-0.0164,-0.0195,-0.0193,-0.0229,-0.023,-0.0231,-0.0232,0,0,0.0162,0.0185,0.0182,0.0226,0.0224,0.0245,0.0231,0.0227,0.0231,0.017,0.0166,0.0047,0.0007,-0.0041,-0.0113,-0.0123,-0.0109,-0.0128,-0.0129,-0.0143,-0.0082,-0.0164,-0.0171,-0.0075,-0.0074,-0.0073,-0.0124,0,0.0211,0.0282,0.0266,0.0331,0.0377,0.035,0.035,0.0337,0.0298,0.0273,0.0156,0.0111,0.0025,0.0001,-0.0026,-0.0081,-0.0097,-0.0097,-0.0115,-0.0117,-0.0182,-0.0168,-0.0139,-0.0187,-0.0123,-0.0122,-0.0122,0,0.0259,0.0308,0.0391,0.0453,0.0467,0.0481,0.0505,0.0499,0.0429,0.04,0.0322,0.0242,0.015,0.01,0.0012,0.003,-0.0019,-0.0065,-0.0067,-0.0159,-0.0194,-0.02,-0.0186,-0.012,-0.012,-0.012,-0.012,0,0.0324,0.039,0.0467,0.0492,0.0542,0.0562,0.0567,0.0539,0.0556,0.0465,0.0479,0.0346,0.0305,0.022,0.0086,0.0079,0.0016,-0.0004,-0.0137,-0.0145,-0.0137,-0.0147,-0.0035,-0.0035,-0.0035,-0.0034,-0.0034,0,0.0392,0.0454,0.0502,0.0546,0.0641,0.0638,0.0696,0.0675,0.0657,0.0702,0.0539,0.0565,0.0355,0.0278,0.0142,-0.0005,0.0059,-0.0136,-0.0155,-0.0123,-0.0129,-0.0081,-0.0085,-0.0036,-0.0036,-0.0036,-0.0035,0,0.0459,0.0486,0.0587,0.0649,0.0674,0.0736,0.0797,0.0841,0.0801,0.0855,0.0837,0.0749,0.0637,0.04,0.0257,0.0084,-0.0064,-0.0125,-0.011,-0.0128,-0.0255,-0.0257,-0.0285,-0.0288,-0.029,-0.0293,-0.0294,0,0.05,0.0559,0.0661,0.0731,0.0756,0.0839,0.0904,0.0905,0.0977,0.1004,0.1065,0.0948,0.0905,0.0583,0.0249,-0.0062,-0.0072,-0.0237,-0.027,-0.0261,-0.0277,-0.0274,-0.0271,-0.0241,-0.0243,-0.0244,-0.0245,0,0.0594,0.062,0.0699,0.0832,0.0918,0.1041,0.1136,0.1225,0.1254,0.1324,0.1428,0.1385,0.1023,0.0706,0.0207,0.0008,-0.0208,-0.0272,-0.0215,-0.0199,-0.0228,-0.0242,-0.0239,-0.0254,-0.0253,-0.0252,-0.0252,-0.0251,0.0646,0.0733,0.0825,0.0952,0.1064,0.1233,0.136,0.1489,0.1646,0.1748,0.1697,0.1624,0.1192,0.0556,0.0172,-0.0263,-0.0255,-0.0391,-0.0383,-0.0375,-0.0377,-0.0411,-0.0473,-0.0473,-0.0474,-0.0474,-0.0474,0,0.0746,0.0837,0.0951,0.1121,0.1264,0.1296,0.1522,0.1654,0.1884,0.1926,0.1966,0.1544,0.1142,0.0663,0.0011,-0.0383,-0.0383,-0.0492,-0.0395,-0.0385,-0.0376,-0.0374,-0.0471,-0.0472,-0.0473,-0.0473,0,0,0.0812,0.0949,0.101,0.126,0.1376,0.1609,0.1752,0.1932,0.2032,0.208,0.2013,0.183,0.1255,0.0793,0.0255,-0.0096,-0.0139,-0.0165,-0.0134,0.0053,0.0068,-0.0298,-0.0282,0,0,0,0,0]}],[{"header":{"parameterUnit":"m.s-1","parameterCategory":2,"la1":30.2991,"la2":30.254,"lo1":-89.0895,"lo2":-89.0444,"dy":0.0017,"dx":0.0017,"nx":28,"ny":28,"refTime":"2025-06-20T21:00:00:Z","depth":"4","parameterNumber":2,"parameterNumberName":"U-component_of_CURRENTS"},"data":[0,0,0,0,0,0,0,0,0,0,0,0,0,0,0,0,0,0,0,0,0,0,0,0,0,0,0,0,0,0,0,0,0,0,0,0,0,0,0,0,0,0,0,0,0,0,0,0,0,0,0,0,0,0,0,0,0,0,0.1685,0.1685,0,0.1683,0.1683,0.1683,0.1714,0.1715,0.1716,0.1717,0.1888,0.1892,0.1895,0,0,0,0,0,0,0,0,0,0,0,0,0,0.1681,0.1682,0.1685,0.1685,0.1685,0.1683,0.1683,0.1683,0.1714,0.1715,0.1716,0.1717,0.1887,0.1891,0.1896,0,0,0,0,0,0,0,0,0,0,0,0,0,0.1681,0.1682,0.1685,0.1701,0.1702,0.1683,0.1683,0.1683,0.1714,0.1715,0.1716,0.1718,0.1885,0.1891,0.1896,0.1905,0,0,0.1914,0.1916,0,0,0,0,0,0,0,0,0.1681,0.1681,0.1699,0.17,0.1701,0.17,0.1744,0.1766,0.1713,0.1709,0.1717,0.1718,0.1841,0.185,0.1844,0.1913,0.192,0.1914,0.1918,0.192,0.1922,0,0,0,0,0,0,0,0.1681,0.1682,0.1684,0.1698,0.17,0.1695,0.1697,0.1747,0.1771,0.171,0.1712,0.1711,0.1843,0.1838,0.1849,0.1923,0.1914,0.1919,0.1922,0.1925,0.2136,0.2138,0,0,0,0,0,0,0.1682,0.1682,0.1684,0.1684,0.1694,0.1694,0.1696,0.1699,0.1767,0.1777,0.171,0.1713,0.1828,0.1842,0.1855,0.1944,0.192,0.1925,0.1928,0.2134,0.2136,0.2139,0,0,0,0,0,0,0.1682,0.1683,0.1684,0.1683,0.1683,0.1693,0.1696,0.1698,0.1744,0.1765,0.1779,0.176,0.1829,0.1847,0.1967,0.1948,0.1928,0.1933,0.2131,0.2135,0.2138,0.2074,0,0,0,0,0,0,0.1682,0.1683,0.1705,0.1683,0.1683,0.1713,0.1695,0.1697,0.1738,0.1743,0.1811,0.1825,0.1832,0.1959,0.1972,0.1956,0.1937,0.2128,0.2133,0.2137,0.2074,0.2075,0.2076,0,0,0,0,0,0.1682,0.1681,0.1706,0.1708,0.1707,0.1715,0.1716,0.1726,0.174,0.1771,0.1835,0.1825,0.1993,0.1967,0.1982,0.1965,0.2126,0.2131,0.2136,0.2073,0.2075,0.2076,0,0,0,0,0,0,0.1671,0.1684,0.1711,0.1712,0.1741,0.1721,0.1736,0.1757,0.1824,0.1847,0.1875,0.1895,0.1987,0.2011,0.1981,0.2046,0.205,0.2058,0.1996,0.1999,0.2,0.206,0.1942,0,0,0,0,0,0.1686,0.1704,0.172,0.1729,0.1744,0.1759,0.1771,0.1791,0.183,0.186,0.1909,0.1965,0.2007,0.2038,0.2095,0.2142,0.2197,0.2141,0.2142,0.2143,0.2208,0.2279,0.2291,0.2155,0.2155,0.2155,0,0,0.1679,0.1692,0.1702,0.1733,0.1747,0.1772,0.177,0.1804,0.1837,0.1873,0.1955,0.1996,0.2035,0.2081,0.2119,0.2102,0.2203,0.2149,0.2148,0.2216,0.2285,0.2298,0.231,0.2159,0.2158,0.2158,0,0,0.166,0.1697,0.1709,0.1745,0.1792,0.1804,0.1833,0.1865,0.1899,0.1992,0.2003,0.2061,0.2143,0.2139,0.2149,0.2209,0.2226,0.2206,0.2235,0.2299,0.2311,0.2322,0.236,0.2376,0.2181,0.2181,0.2181,0,0.1661,0.1679,0.1715,0.1743,0.177,0.1829,0.1855,0.1892,0.1969,0.2006,0.2035,0.215,0.2167,0.2193,0.2202,0.2205,0.2256,0.2203,0.2298,0.231,0.2323,0.2361,0.2378,0.2178,0.2178,0.2179,0.2179,0,0.1643,0.1689,0.1696,0.176,0.1798,0.1834,0.1891,0.1954,0.2017,0.2057,0.2158,0.2198,0.2263,0.2237,0.2243,0.2304,0.2315,0.23,0.228,0.2332,0.2369,0.2388,0.2175,0.2176,0.2176,0.2177,0,0,0.1575,0.1668,0.1681,0.1725,0.1819,0.1839,0.1914,0.1985,0.2041,0.2138,0.2209,0.2262,0.2307,0.233,0.2314,0.2358,0.2438,0.2374,0.2378,0.2391,0.2587,0.2396,0.2399,0.244,0.2444,0.2448,0.2558,0,0.1564,0.1612,0.1666,0.1735,0.177,0.1858,0.1919,0.2004,0.2088,0.218,0.224,0.2322,0.2326,0.2354,0.2406,0.2452,0.2499,0.2412,0.256,0.2566,0.237,0.2418,0.2461,0.2573,0.2577,0.258,0.2583,0,0.154,0.158,0.1635,0.1741,0.1763,0.182,0.1934,0.2,0.2134,0.221,0.2316,0.2384,0.2473,0.2472,0.2615,0.2567,0.2608,0.2635,0.2639,0.2518,0.2412,0.2529,0.2618,0.2616,0.2613,0.2611,0.2608,0,0.1472,0.1564,0.1609,0.1646,0.1765,0.1816,0.1889,0.2017,0.21,0.2246,0.234,0.2455,0.2541,0.2637,0.2714,0.2686,0.2873,0.2813,0.2682,0.2668,0.2832,0.282,0.2945,0.2945,0.2945,0.2944,0.2944,0,0.1434,0.1476,0.159,0.1616,0.1683,0.1787,0.1886,0.1972,0.2136,0.2239,0.2364,0.2462,0.2607,0.2716,0.2764,0.2788,0.2914,0.2732,0.2699,0.2796,0.2779,0.2842,0.2829,0.2948,0.2948,0.2947,0.2946,0,0.135,0.1433,0.1487,0.1609,0.1658,0.1706,0.189,0.1959,0.2131,0.2274,0.2338,0.2524,0.2649,0.2756,0.2893,0.2827,0.2868,0.2844,0.2955,0.292,0.2608,0.259,0.2702,0.2697,0.2692,0.2688,0.2685,0,0.1301,0.1325,0.1455,0.1497,0.1559,0.1666,0.1743,0.1934,0.2025,0.2289,0.2344,0.2533,0.263,0.2684,0.2787,0.2845,0.2818,0.2803,0.2707,0.2635,0.2592,0.2581,0.2571,0.2678,0.2677,0.2675,0.2674,0,0.1197,0.1262,0.1308,0.1403,0.1487,0.1554,0.169,0.1757,0.1979,0.2173,0.2312,0.2389,0.2512,0.2588,0.2647,0.2684,0.2786,0.2754,0.2763,0.2672,0.2606,0.2565,0.256,0.2658,0.266,0.2662,0.2663,0,0.1124,0.1128,0.122,0.1288,0.1379,0.1409,0.1496,0.163,0.1761,0.2077,0.2117,0.2317,0.2498,0.2507,0.2569,0.2578,0.2534,0.2439,0.2463,0.2482,0.2353,0.2233,0.2174,0,0,0,0,0,0.1053,0.1054,0.11,0.1163,0.1241,0.1294,0.1447,0.155,0.1792,0.1845,0.199,0.2103,0.2203,0.2303,0.2267,0.2431,0.251,0.2374,0.2403,0.2569,0.2587,0.2453,0,0,0,0,0,0,0.1004,0.1043,0.1058,0.1048,0.1064,0.113,0.121,0.1362,0.1423,0.1685,0.1761,0.1963,0.2092,0.2209,0.2225,0.2252,0.2223,0.2513,0.2507,0.2558,0.2575,0.259,0.2458,0,0,0,0,0]},{"header":{"parameterUnit":"m.s-1","parameterCategory":2,"la1":30.2991,"la2":30.254,"lo1":-89.0895,"lo2":-89.0444,"dy":0.0017,"dx":0.0017,"nx":28,"ny":28,"refTime":"2025-06-20T21:00:00:Z","depth":"4","parameterNumber":3,"parameterNumberName":"V-component_of_CURRENTS"},"data":[0,0,0,0,0,0,0,0,0,0,0,0,0,0,0,0,0,0,0,0,0,0,0,0,0,0,0,0,0,0,0,0,0,0,0,0,0,0,0,0,0,0,0,0,0,0,0,0,0,0,0,0,0,0,0,0,0,0,0.0042,0.0042,0,0.0016,0.0015,0.0015,0.0,0.0001,0.0001,0.0001,-0.0102,-0.0104,-0.0107,0,0,0,0,0,0,0,0,0,0,0,0,0,0.0062,0.0061,0.0042,0.0042,0.0041,0.0016,0.0015,0.0015,0.0,0.0001,0.0001,0.0001,-0.0101,-0.0104,-0.0108,0,0,0,0,0,0,0,0,0,0,0,0,0,0.0044,0.0061,0.0042,0.0033,0.0032,0.0016,0.0015,0.0015,0.0,0.0001,0.0001,0.0001,-0.01,-0.0104,-0.0108,-0.0138,0,0,-0.0121,-0.0123,0,0,0,0,0,0,0,0,0.0045,0.0043,0.0034,0.0033,0.0032,0.0013,-0.0015,-0.004,0.0,0.001,0.0001,0.0001,-0.0069,-0.0076,-0.0083,-0.0143,-0.0148,-0.0121,-0.0124,-0.0126,-0.0127,0,0,0,0,0,0,0,0.0047,0.0044,0.0029,0.0034,0.0033,0.0024,0.0022,-0.002,-0.0033,0.0009,0.0009,0.0009,-0.0071,-0.0079,-0.0086,-0.0149,-0.0121,-0.0125,-0.0128,-0.0129,-0.0274,-0.0275,0,0,0,0,0,0,0.0054,0.0046,0.003,0.0029,0.0042,0.0024,0.0021,0.0018,-0.0031,-0.0037,0.0009,0.0008,-0.0072,-0.0081,-0.0089,-0.011,-0.0126,-0.013,-0.0132,-0.0272,-0.0274,-0.0275,0,0,0,0,0,0,0.0055,0.0053,0.0031,0.0038,0.0035,0.0024,0.0019,0.0017,0.0015,-0.003,-0.0038,0.0011,-0.0072,-0.0083,-0.0135,-0.0115,-0.0132,-0.0136,-0.0271,-0.0273,-0.0275,-0.0165,0,0,0,0,0,0,0.0055,0.0053,0.0056,0.0039,0.0035,0.0033,0.0019,0.0016,0.0015,0.0015,-0.0032,-0.0041,-0.0072,-0.0129,-0.014,-0.0122,-0.0139,-0.0269,-0.0272,-0.0274,-0.0167,-0.0163,-0.0159,0,0,0,0,0,0.0056,0.0064,0.0056,0.0055,0.0039,0.0033,0.0031,0.0022,0.0015,0.0019,-0.0027,-0.004,-0.0151,-0.0133,-0.0146,-0.0128,-0.0268,-0.0271,-0.0274,-0.0168,-0.0163,-0.0159,0,0,0,0,0,0,0.0073,0.0063,0.0054,0.0058,0.005,0.0032,0.0038,0.0026,-0.0005,-0.001,-0.0056,-0.0069,-0.011,-0.0149,-0.0127,-0.0185,-0.0212,-0.0217,-0.0128,-0.0124,-0.012,-0.0118,-0.0143,0,0,0,0,0,0.0078,0.0085,0.0068,0.0073,0.0071,0.0054,0.0051,0.0042,0.0013,0.0002,-0.0034,-0.0085,-0.0133,-0.015,-0.0203,-0.0228,-0.0276,-0.0231,-0.0227,-0.0223,-0.0236,-0.0296,-0.0298,-0.0285,-0.0285,-0.0285,0,0,0.0085,0.0083,0.0085,0.0078,0.0071,0.008,0.0053,0.0054,0.0057,-0.0008,-0.0021,-0.0077,-0.0144,-0.0175,-0.0195,-0.0198,-0.025,-0.0227,-0.0222,-0.0237,-0.0299,-0.03,-0.0301,-0.0287,-0.0286,-0.0286,0,0,0.0116,0.0102,0.0123,0.0121,0.0118,0.0103,0.0106,0.0086,0.0074,0.0045,-0.0004,-0.0057,-0.0116,-0.0158,-0.0188,-0.0203,-0.0237,-0.0211,-0.0172,-0.0229,-0.023,-0.0231,-0.027,-0.0275,-0.0196,-0.0196,-0.0196,0,0.013,0.0149,0.0127,0.0151,0.0158,0.0118,0.0141,0.0122,0.0086,0.0072,0.0051,-0.0061,-0.0111,-0.0156,-0.016,-0.0189,-0.0223,-0.0168,-0.0219,-0.0222,-0.0225,-0.0265,-0.0273,-0.0191,-0.0191,-0.0192,-0.0192,0,0.0176,0.0195,0.0209,0.0224,0.0224,0.0236,0.0209,0.0197,0.0169,0.0141,0.0082,-0.0003,-0.0065,-0.0086,-0.0125,-0.0167,-0.0183,-0.0209,-0.0215,-0.0219,-0.0262,-0.0271,-0.0184,-0.0185,-0.0187,-0.0188,0,0,0.0203,0.0237,0.0242,0.027,0.0264,0.0272,0.027,0.0254,0.0255,0.019,0.0174,0.0075,0.0024,-0.002,-0.0076,-0.0129,-0.0171,-0.0167,-0.0172,-0.0178,-0.0281,-0.0264,-0.0273,-0.0192,-0.0194,-0.0195,-0.0292,0,0.025,0.0313,0.031,0.0363,0.0394,0.0363,0.0368,0.0343,0.0304,0.0274,0.0171,0.0127,0.0054,0.003,-0.0038,-0.015,-0.0197,-0.0142,-0.0303,-0.0308,-0.027,-0.0284,-0.0201,-0.0299,-0.0302,-0.0304,-0.0305,0,0.0299,0.0338,0.0403,0.0446,0.0454,0.0474,0.0473,0.0471,0.0409,0.0378,0.0303,0.0224,0.0122,0.0066,-0.012,-0.0077,-0.0172,-0.0258,-0.0264,-0.0298,-0.031,-0.0309,-0.0323,-0.0322,-0.0321,-0.0319,-0.0318,0,0.0336,0.0402,0.0459,0.0475,0.051,0.053,0.0535,0.0502,0.0514,0.0443,0.0434,0.0293,0.0226,0.0073,-0.0111,-0.011,-0.0313,-0.0331,-0.0406,-0.0405,-0.0436,-0.0435,-0.0456,-0.0456,-0.0456,-0.0455,-0.0455,0,0.0385,0.0434,0.0488,0.052,0.0592,0.0587,0.0638,0.0619,0.0602,0.0615,0.0493,0.0457,0.0223,0.0081,-0.0086,-0.0278,-0.0294,-0.0411,-0.0436,-0.0387,-0.0379,-0.0442,-0.0439,-0.0459,-0.0458,-0.0457,-0.0457,0,0.0418,0.0451,0.0531,0.0588,0.0617,0.0664,0.073,0.0762,0.073,0.0741,0.0727,0.0575,0.0383,0.0157,-0.0101,-0.0231,-0.0422,-0.0479,-0.0399,-0.0416,-0.0478,-0.0469,-0.0571,-0.0572,-0.0572,-0.0572,-0.0573,0,0.0441,0.0488,0.0586,0.0645,0.068,0.0757,0.0815,0.0827,0.0863,0.081,0.0816,0.0646,0.052,0.0174,-0.0077,-0.0385,-0.0428,-0.0516,-0.052,-0.048,-0.0494,-0.0484,-0.0475,-0.0573,-0.0573,-0.0573,-0.0573,0,0.0491,0.0528,0.0587,0.0706,0.0793,0.0889,0.0963,0.1002,0.1003,0.0988,0.0897,0.0705,0.0486,0.0191,-0.0047,-0.0272,-0.046,-0.052,-0.0521,-0.0525,-0.0483,-0.0494,-0.0485,-0.0574,-0.0574,-0.0574,-0.0574,0,0.0523,0.058,0.0662,0.0763,0.0874,0.0969,0.1013,0.105,0.108,0.1021,0.0986,0.0738,0.0588,0.025,0.0026,-0.0193,-0.0251,-0.0316,-0.0329,-0.0331,-0.024,-0.015,-0.0165,0,0,0,0,0,0.0555,0.062,0.0717,0.0824,0.0927,0.0992,0.109,0.112,0.1129,0.1088,0.1041,0.084,0.0488,0.0322,0.0109,0.0007,-0.0297,-0.0251,-0.0379,-0.058,-0.0579,-0.0514,0,0,0,0,0,0,0.058,0.0671,0.0717,0.0847,0.0924,0.1047,0.1109,0.1124,0.1098,0.1067,0.0884,0.0792,0.0449,0.061,0.0104,0.0034,-0.0074,-0.0417,-0.0421,-0.058,-0.0579,-0.0578,-0.0511,0,0,0,0,0]}]]